FW9984 Weather Reports


time (UTC)temp
F
wind
direction
speed
knots
gust
knots
rain 1hr
in
rain 24hr
in
rain mn
in
humidity
%
barometer
mb
20260906023101 59 0 0.0 0.9 0.00 0.13 0.00 99 1025.4
20260906021605 59 0 0.0 0.0 0.00 0.13 0.00 99 1025.0
20260906020105 59 0 0.0 0.0 0.00 0.13 0.00 99 1025.0
20260906014609 59 0 0.0 0.9 0.00 0.13 0.00 99 1024.9
20260906013103 59 0 0.0 0.0 0.00 0.13 0.00 99 1024.9
20260906011602 59 0 0.0 0.0 0.00 0.13 0.00 99 1024.7
20260906010110 59 0 0.0 0.0 0.00 0.13 0.00 99 1024.7
20260906004600 59 0 0.0 0.0 0.00 0.13 0.00 99 1024.6
20260906003110 60 312 0.0 1.7 0.00 0.13 0.00 99 1024.8
20260906001607 60 0 0.0 0.0 0.00 0.13 0.00 99 1024.7
20260906000112 60 191 0.0 0.0 0.00 0.13 0.00 99 1024.5
20260905234619 61 0 0.0 0.0 0.00 0.13 0.00 99 1024.4
20260905233119 61 0 0.0 0.0 0.00 0.13 0.00 99 1024.4
20260905231604 61 0 0.0 0.0 0.00 0.13 0.00 99 1024.3
20260905230130 61 0 0.0 0.0 0.00 0.13 0.00 99 1024.2
20260905224602 61 0 0.0 0.9 0.00 0.13 0.00 99 1024.1
20260905223101 61 148 0.0 0.9 0.00 0.13 0.00 98 1024.2
20260905221603 61 0 0.0 0.9 0.00 0.13 0.00 98 1024.2
20260905220108 61 0 0.0 0.9 0.00 0.12 0.00 98 1024.2
20260905214604 61 0 0.0 0.9 0.00 0.12 0.12 98 1024.0
20260905213101 61 0 0.0 0.0 0.00 0.12 0.12 98 1023.9
20260905211605 61 0 0.0 0.9 0.00 0.12 0.12 98 1023.7
20260905204602 61 0 0.0 0.0 0.00 0.12 0.12 97 1023.7
20260905203105 61 0 0.0 0.0 0.00 0.12 0.12 98 1023.4
20260905201608 61 0 0.0 0.0 0.00 0.12 0.12 97 1023.3
20260905200110 61 0 0.0 0.9 0.00 0.12 0.12 97 1023.4
20260905194602 61 0 0.0 0.0 0.00 0.12 0.12 97 1023.0
20260905193112 61 0 0.0 0.9 0.00 0.12 0.12 97 1022.9
20260905191600 61 0 0.0 0.9 0.00 0.12 0.12 96 1022.7
20260905190100 62 0 0.0 0.9 0.00 0.12 0.12 96 1022.4
20260905184604 62 0 0.0 0.0 0.00 0.12 0.12 96 1022.1
20260905183104 63 0 0.0 0.0 0.00 0.12 0.12 96 1022.0
20260905181601 63 0 0.0 0.0 0.00 0.12 0.12 95 1021.9
20260905180100 64 0 0.0 0.0 0.00 0.12 0.12 95 1021.6
20260905174613 65 0 0.0 0.0 0.00 0.12 0.12 93 1021.3
20260905173100 66 0 0.0 0.0 0.00 0.12 0.12 91 1021.1
20260905171607 69 0 0.0 0.0 0.00 0.12 0.12 88 1021.0
20260905170107 71 0 0.0 0.0 0.00 0.12 0.12 83 1020.8
20260905164604 74 0 0.0 0.0 0.00 0.12 0.12 79 1020.6
20260905163102 75 0 0.0 0.0 0.00 0.12 0.12 77 1020.4
20260905161602 75 0 0.0 0.0 0.00 0.12 0.12 78 1020.5
20260905160107 72 0 0.0 0.0 0.00 0.12 0.12 82 1020.4
20260905154608 71 0 0.0 0.9 0.00 0.12 0.12 84 1020.4
20260905153101 68 330 0.0 3.5 0.00 0.12 0.12 89 1020.4
20260905151601 68 78 0.0 2.6 0.00 0.12 0.12 90 1020.4
20260905150114 67 0 0.0 0.9 0.00 0.12 0.12 89 1020.5
20260905144603 68 0 0.0 0.9 0.00 0.12 0.12 89 1020.6
20260905143103 68 0 0.0 0.9 0.00 0.12 0.12 87 1020.6
20260905141607 68 0 0.0 0.9 0.00 0.12 0.12 87 1020.7
20260905134559 66 0 0.0 0.9 0.00 0.12 0.12 93 1020.9
20260905133100 66 296 0.0 2.6 0.01 0.12 0.12 93 1020.7
20260905131602 65 0 0.0 2.6 0.08 0.12 0.12 93 1020.8
20260905130101 65 0 0.0 1.7 0.12 0.12 0.12 92 1021.2
20260905124603 66 0 0.0 0.9 0.12 0.12 0.12 91 1021.3
20260905123101 66 0 0.0 0.9 0.11 0.11 0.11 88 1021.6
20260905121603 68 209 0.9 8.7 0.03 0.03 0.03 79 1021.9
20260905120106 73 310 2.6 4.3 0.00 0.00 0.00 62 1021.7
20260905114603 74 309 0.0 2.6 0.00 0.00 0.00 60 1021.3
20260905113115 75 77 0.9 3.5 0.00 0.00 0.00 60 1020.8
20260905111559 75 47 0.9 3.5 0.00 0.00 0.00 59 1020.8
20260905104602 74 76 0.9 5.2 0.00 0.00 0.00 60 1020.7
20260905103103 75 85 1.7 7.0 0.00 0.00 0.00 58 1020.9
20260905101602 77 75 2.6 6.1 0.00 0.00 0.00 56 1020.7
20260905100109 77 71 2.6 9.6 0.00 0.00 0.00 57 1020.7
20260905094603 75 113 2.6 9.6 0.00 0.00 0.00 59 1020.4
20260905093101 74 87 3.5 7.8 0.00 0.00 0.00 62 1020.3
20260905091605 75 54 3.5 10.4 0.00 0.00 0.00 62 1020.7
20260905090103 73 77 2.6 12.2 0.00 0.00 0.00 68 1020.5
20260905084602 73 28 5.2 9.6 0.00 0.00 0.00 69 1020.0
20260905083107 74 86 4.3 8.7 0.00 0.00 0.00 71 1019.9
20260905081608 74 49 3.5 8.7 0.00 0.00 0.00 71 1019.6
20260905080100 74 67 5.2 14.8 0.00 0.00 0.00 73 1019.3
20260905074600 73 327 6.1 11.3 0.00 0.00 0.00 77 1018.7
20260905073104 71 0 0.0 1.7 0.00 0.00 0.00 82 1018.1
20260905071607 70 311 0.0 1.7 0.00 0.00 0.00 83 1017.7
20260905064559 68 316 0.0 2.6 0.00 0.00 0.00 87 1017.3
20260905063107 69 0 0.0 0.9 0.00 0.00 0.00 87 1017.1
20260905061614 68 0 0.0 0.9 0.00 0.00 0.00 85 1017.0
20260905060105 65 297 0.0 1.7 0.00 0.00 0.00 90 1017.0
20260905054600 63 256 0.0 0.9 0.00 0.00 0.00 94 1016.8
20260905053100 61 0 0.0 0.9 0.00 0.00 0.00 95 1016.7
20260905051605 59 0 0.0 0.9 0.00 0.00 0.00 96 1016.3
20260905050105 59 0 0.0 0.0 0.00 0.00 0.00 96 1016.2
20260905044601 59 0 0.0 0.9 0.00 0.00 0.00 96 1016.1
20260905043107 59 0 0.0 0.0 0.00 0.00 0.00 96 1015.7
20260905041608 59 0 0.0 0.0 0.00 0.00 0.00 96 1015.4
20260905040105 59 0 0.0 0.0 0.00 0.00 0.00 96 1015.4
20260905034604 59 0 0.0 0.9 0.00 0.00 0.00 95 1015.5
20260905033108 59 0 0.0 0.9 0.00 0.00 0.00 95 1015.2
20260905031604 59 0 0.0 0.0 0.00 0.00 0.00 95 1015.3
20260905030109 60 0 0.0 0.0 0.00 0.00 0.00 95 1015.2
20260905024605 60 0 0.0 0.0 0.00 0.00 0.00 94 1015.2